Location: Dortmund
(51.5019°N, 7.6520°E)
Time: 02:16:30
(UTC+01:00)

ISS - Pass Details

Date: 14 February 2018
Orbit: 403 x 407 km, 51.6° (Epoch: 22 February)

Event Time Altitude Azimuth Distance (km) Brightness Sun altitude
Rises 18:23:58 0° 277° (W) 2,321 1.7 -7.0°
Reaches altitude 10° 18:27:28 10° 237° (WSW) 1,456 0.3 -7.6°
Maximum altitude 18:28:15 11° 223° (SW) 1,415 -0.2 -7.7°
Drops below altitude 10° 18:29:03 10° 209° (SSW) 1,454 -0.4 -7.8°
Sets 18:32:33 0° 169° (S) 2,308 0.0 -8.3°
